Content
SEND FEEDBACK

Daily
Averages
Monthly
Summary
United States of America

BAYOU LA BATRE, ALABAMA


Home > North America > United States > Alabama
Elevation: 0 feet     Latitude: 30 23N     Longitude: 088 14W

WEATHER
 
SELECT A DAY
Number of Records: 198,838;   Date Range: 8/14/97 - 10/18/14
 
SHARE

PRINT THIS DATA

[ ← Previous Day ]
WEATHER ALMANAC - APRIL 7, 2014
[ Next Day → ]
[ °C ]   °F
Weather ElementAverageHighLow
Temperature70.7 °F79 °F (12:53 pm)59 °F (11:53 pm)
Dewpoint64.5 °F71.1 °F (1:53 am)50 °F (11:53 pm)
Humidity82.5 %100 % (5:25 am)50 % (1:53 pm)
Barometer29.72 in29.89 in (11:53 pm)29.66 in (4:53 am)
Wind Speed8.8 mph13.8 mph (3:53 am)
Wind Gust25.3 mph (3:53 am)
Weather ElementAverage
Visibility7.5 mi
Wind DirectionWSW (235.8 °)

Weather ElementTotal
Precipitation0.06 in
Cooling Degree Days4 (Base 65)
Growing Degree Days19 (Base 50)
Averaged from 33 records on April 7, 2014
WEATHER CONDITIONS BREAKOUT
WIND DIRECTION BREAKOUT
WEATHER BY HOUR - APRIL 7, 2014
[ °C ]   °F
Local TimeTemperatureDewpointHumidityBarometerVisibilityWind DirectionWind SpeedGust SpeedPrecipitationEventsConditions
1:53 AM72.0 °F71.1 °F97 %29.71 in6.0 miSSE (160°)9.2 mph24.2 mph0.00 inOvercast
2:53 AM72.0 °F71.1 °F97 %29.71 in6.0 miSouth (180°)12.7 mph24.2 mphOvercast
3:24 AM71.1 °F70.0 °F96 %29.69 in5.0 miSouth (180°)12.7 mph20.7 mphOvercast
3:53 AM71.1 °F70.0 °F96 %29.68 in4.0 miSouth (180°)13.8 mph25.3 mph0.00 inRainLight Rain
4:53 AM70.0 °F69.1 °F97 %29.66 in1.8 miSouth (180°)11.5 mph0.02 inOvercast
5:07 AM70.0 °F69.1 °F97 %29.67 in2.5 miSSW (200°)9.2 mph0.00 inOvercast
5:25 AM70.0 °F70.0 °F100 %29.67 in4.0 miSSW (210°)8.1 mph20.7 mph0.00 inRainLight Rain
5:53 AM70.0 °F69.1 °F97 %29.69 in2.5 miSW (220°)8.1 mph0.00 inOvercast
6:02 AM70.0 °F70.0 °F100 %29.68 in4.0 miSW (230°)9.2 mphOvercast
6:21 AM72.0 °F71.1 °F97 %29.68 in7.0 miSW (230°)5.8 mphOvercast
6:38 AM72.0 °F71.1 °F97 %29.69 in8.0 miWSW (240°)12.7 mph19.6 mph0.00 inRainLight Rain
6:53 AM72.0 °F71.1 °F97 %29.71 in8.0 miSSW (210°)8.1 mph0.00 inRainLight Rain
7:04 AM71.1 °F70.0 °F96 %29.69 in6.0 miSW (220°)8.1 mph21.9 mph0.00 inRainLight Rain
7:53 AM69.1 °F69.1 °F100 %29.69 in5.0 miSouth (170°)6.9 mph0.04 inOvercast
8:53 AM70.0 °F69.1 °F97 %29.71 in7.0 miSSW (200°)9.2 mph0.00 inOvercast
9:13 AM70.0 °F68.0 °F93 %29.71 in6.0 miSouth (190°)8.1 mphMostly Cloudy
9:20 AM70.0 °F68.0 °F93 %29.71 in6.0 miSouth (190°)6.9 mphPartly Cloudy
9:53 AM70.0 °F66.9 °F90 %29.71 in10.0 miSW (230°)5.8 mphClear
10:53 AM73.9 °F66.9 °F79 %29.71 in10.0 miWSW (240°)6.9 mph18.4 mphScattered Clouds
11:00 AM75.0 °F66.0 °F73 %29.71 in10.0 miWest (260°)9.2 mph16.1 mphMostly Cloudy
11:10 AM75.9 °F64.9 °F69 %29.71 in10.0 miWest (270°)13.8 mph19.6 mphScattered Clouds
11:53 AM75.9 °F64.0 °F67 %29.72 in10.0 miWest (270°)9.2 mph18.4 mphPartly Cloudy
12:53 PM79.0 °F62.1 °F56 %29.71 in10.0 miVariable6.9 mph16.1 mphClear
1:53 PM77.0 °F57.0 °F50 %29.71 in10.0 miWest (260°)8.1 mphClear
3:53 PM73.9 °F60.1 °F62 %29.72 in10.0 miSW (230°)8.1 mphClear
4:53 PM73.9 °F57.0 °F55 %29.72 in10.0 miWNW (290°)8.1 mphClear
5:53 PM72.0 °F57.0 °F59 %29.73 in10.0 miWNW (300°)9.2 mphClear
6:53 PM69.1 °F55.0 °F61 %29.76 in10.0 miNW (320°)6.9 mphClear
7:53 PM64.9 °F55.9 °F73 %29.79 in10.0 miNNW (330°)3.5 mphClear
8:53 PM64.0 °F55.9 °F75 %29.83 in10.0 miNorth (350°)5.8 mphClear
9:53 PM64.0 °F53.1 °F67 %29.85 in10.0 miNNW (340°)9.2 mphClear
10:53 PM62.1 °F51.1 °F67 %29.88 in10.0 miNorth (350°)10.4 mphClear
11:53 PM59.0 °F50.0 °F72 %29.89 in10.0 miNorth (350°)9.2 mph19.6 mphClear
Hourly data recorded from KPQL, located miles away from Bayou La Batre, Alabama







STORIES FROM OUR PARTNERS